Weather History for Natchitoches, LA

Change the Weather History Date:

Sunday, December 9, 2012

  Actual Average Record
Temperature  
Mean Temperature 68 °F -  
Max Temperature 78 °F 62 °F 82 °F (2007)
Min Temperature 58 °F 40 °F 19 °F (2006)
Cooling Degree Days 3    
Growing Degree Days 18 (Base 50)    
Moisture  
Dew Point 64 °F    
Average Humidity 89    
Maximum Humidity 100    
Minimum Humidity 59    
Precipitation  
Precipitation 0.83 in - - ()
Sea Level Pressure  
Sea Level Pressure 29.87 in    
Wind  
Wind Speed 4 mph (South)    
Max Wind Speed 16 mph    
Max Gust Speed 22 mph    
Visibility 7 miles    
Events Fog , Rain , Thunderstorm    
Averages and records for this station are not official NWS values.
T = Trace of Precipitation, MM = Missing Value Source: NWS Daily Summary

Daily Weather History Graph

Daily Weather History Graph

Search for Another Location

Airport:

Trip Planner

Search our weather history database for the weather conditions in past years. The results will help you decide how hot, cold, wet, or windy it might be!

Date:

Astronomy

Dec. 09, 2012 Rise Set
Actual Time 7:01 AM CST 5:08 PM CST
Civil Twilight 6:34 AM CST 5:35 PM CST
Nautical Twilight 6:03 AM CST 6:06 PM CST
Astronomical Twilight 5:34 AM CST 6:35 PM CST
Moon 2:45 AM CST (12/9) 2:06 PM CST (12/9)
Length of Visible Light 11h 01m
Length of Day
10h 07m
Waning Crescent, 18% of the Moon is Illuminated
Dec 9
Waning Crescent
Dec 13
New
Dec 19
First Quarter
Dec 28
Full
Jan 4
Last Quarter

Hourly Weather History & Observations

Time (CST) Temp. Dew Point Humidity Pressure Visibility Wind Dir Wind Speed Gust Speed Precip Events Conditions
12:15 AM 63.0 °F 62.6 °F 99% 29.90 in 10.0 mi South 4.6 mph - N/A   Clear
12:35 AM 62.6 °F 62.1 °F 98% 29.90 in 10.0 mi SSE 4.6 mph - N/A   Clear
1:15 AM 61.9 °F 61.7 °F 99% 29.90 in 7.0 mi SSE 3.5 mph - N/A   Mostly Cloudy
1:35 AM 61.5 °F 61.3 °F 99% 29.90 in 10.0 mi SSE 3.5 mph - N/A   Mostly Cloudy
1:55 AM 61.7 °F 61.5 °F 99% 29.90 in 7.0 mi Calm Calm - N/A   Scattered Clouds
2:15 AM 61.3 °F 61.3 °F 100% 29.89 in 3.0 mi Calm Calm - N/A   Scattered Clouds
2:35 AM 60.4 °F 60.4 °F 100% 29.89 in 0.5 mi Calm Calm - N/A Fog Fog
2:55 AM 59.5 °F 59.5 °F 100% 29.89 in 0.2 mi Calm Calm - N/A Fog Fog
3:15 AM 59.0 °F 59.0 °F 100% 29.89 in 0.2 mi Calm Calm - N/A Fog Fog
3:35 AM 58.8 °F 58.8 °F 100% 29.89 in 0.5 mi Calm Calm - N/A Fog Fog
3:55 AM 59.9 °F 59.9 °F 100% 29.90 in 1.2 mi Calm Calm - N/A   Overcast
4:15 AM 61.3 °F 61.3 °F 100% 29.89 in 5.0 mi Calm Calm - N/A   Overcast
4:35 AM 61.7 °F 61.7 °F 100% 29.90 in 5.0 mi Calm Calm - N/A   Overcast
4:55 AM 61.9 °F 61.9 °F 100% 29.90 in 5.0 mi Calm Calm - N/A   Overcast
5:15 AM 61.9 °F 61.9 °F 100% 29.90 in 7.0 mi Calm Calm - N/A   Overcast
5:35 AM 62.1 °F 62.1 °F 100% 29.91 in 5.0 mi Calm Calm - N/A   Overcast
5:55 AM 62.4 °F 62.4 °F 100% 29.91 in 2.5 mi Calm Calm - N/A   Overcast
6:15 AM 62.6 °F 62.6 °F 100% 29.92 in 1.0 mi Calm Calm - N/A   Overcast
6:35 AM 62.6 °F 62.6 °F 100% 29.92 in 1.0 mi Calm Calm - N/A   Overcast
6:55 AM 62.6 °F 62.6 °F 100% 29.92 in 0.8 mi Calm Calm - N/A   Overcast
7:15 AM 62.8 °F 62.8 °F 100% 29.93 in 0.5 mi Calm Calm - N/A Fog Fog
7:35 AM 63.5 °F 63.5 °F 100% 29.93 in 0.5 mi Calm Calm - N/A Fog Fog
7:55 AM 63.5 °F 63.5 °F 100% 29.93 in 1.5 mi Calm Calm - N/A   Overcast
8:15 AM 63.1 °F 63.1 °F 100% 29.93 in 1.2 mi Calm Calm - N/A   Overcast
8:35 AM 63.7 °F 63.7 °F 100% 29.94 in 1.5 mi Calm Calm - N/A   Overcast
8:55 AM 64.0 °F 64.0 °F 100% 29.94 in 2.0 mi Calm Calm - N/A   Overcast
9:15 AM 64.6 °F 64.6 °F 100% 29.94 in 2.5 mi SE 4.6 mph - N/A   Overcast
9:35 AM 65.5 °F 65.3 °F 99% 29.95 in 3.0 mi SE 3.5 mph - N/A   Overcast
9:55 AM 66.2 °F 65.5 °F 98% 29.95 in 4.0 mi SSE 4.6 mph - N/A   Overcast
10:35 AM 68.2 °F 66.6 °F 95% 29.93 in 5.0 mi SE 4.6 mph - N/A   Overcast
10:55 AM 68.4 °F 66.6 °F 94% 29.93 in 5.0 mi ESE 4.6 mph - N/A   Overcast
11:15 AM 68.9 °F 67.1 °F 94% 29.92 in 5.0 mi Calm Calm - N/A   Overcast
11:35 AM 71.4 °F 66.9 °F 86% 29.91 in 10.0 mi South 9.2 mph - N/A   Overcast
11:55 AM 73.2 °F 67.5 °F 82% 29.90 in 10.0 mi South 5.8 mph - N/A   Overcast
12:15 PM 73.0 °F 67.1 °F 82% 29.88 in 10.0 mi South 10.4 mph - N/A   Overcast
12:35 PM 73.9 °F 66.6 °F 78% 29.88 in 10.0 mi WSW 10.4 mph 16.1 mph N/A   Mostly Cloudy
12:55 PM 75.2 °F 67.1 °F 76% 29.87 in 10.0 mi SW 9.2 mph - N/A   Mostly Cloudy
1:15 PM 77.0 °F 64.8 °F 66% 29.85 in 10.0 mi South 13.8 mph 18.4 mph N/A   Scattered Clouds
1:35 PM 78.6 °F 64.4 °F 62% 29.84 in 10.0 mi SSW 9.2 mph 16.1 mph N/A   Clear
1:55 PM 78.8 °F 63.3 °F 59% 29.83 in 10.0 mi SSW 9.2 mph 19.6 mph N/A   Clear
2:15 PM 77.9 °F 63.1 °F 60% 29.83 in 10.0 mi SW 10.4 mph 19.6 mph N/A   Clear
2:35 PM 77.4 °F 62.1 °F 59% 29.83 in 10.0 mi SW 16.1 mph 21.9 mph N/A   Clear
2:55 PM 76.3 °F 63.0 °F 63% 29.83 in 10.0 mi SSW 6.9 mph - N/A   Clear
3:15 PM 76.1 °F 63.5 °F 65% 29.82 in 10.0 mi SSW 6.9 mph - N/A   Clear
3:35 PM 75.6 °F 63.7 °F 66% 29.82 in 10.0 mi SSW 6.9 mph - N/A   Clear
3:55 PM 75.2 °F 63.5 °F 67% 29.81 in 10.0 mi South 5.8 mph - N/A   Clear
4:15 PM 74.3 °F 63.9 °F 70% 29.81 in 10.0 mi South 4.6 mph - N/A   Clear
4:35 PM 73.6 °F 64.0 °F 72% 29.82 in 10.0 mi SSW 3.5 mph - N/A   Clear
4:55 PM 72.5 °F 64.4 °F 76% 29.82 in 10.0 mi South 4.6 mph - N/A   Clear
5:15 PM 70.9 °F 64.6 °F 80% 29.81 in 10.0 mi South 4.6 mph - N/A   Clear
5:35 PM 70.3 °F 64.8 °F 82% 29.81 in 10.0 mi SSE 8.1 mph - N/A   Clear
5:55 PM 70.0 °F 65.3 °F 85% 29.81 in 10.0 mi South 5.8 mph - N/A   Clear
6:15 PM 69.6 °F 65.3 °F 86% 29.82 in 10.0 mi South 5.8 mph - N/A   Clear
6:35 PM 69.3 °F 65.3 °F 87% 29.81 in 10.0 mi SSE 4.6 mph - N/A   Clear
6:55 PM 69.4 °F 65.5 °F 87% 29.81 in 10.0 mi South 6.9 mph - N/A   Clear
7:15 PM 70.3 °F 65.7 °F 85% 29.81 in 10.0 mi South 6.9 mph - N/A   Scattered Clouds
7:35 PM 70.7 °F 65.8 °F 85% 29.80 in 10.0 mi South 6.9 mph - N/A   Clear
7:55 PM 70.7 °F 66.2 °F 86% 29.80 in 10.0 mi South 8.1 mph - N/A   Mostly Cloudy
8:15 PM 70.9 °F 66.2 °F 85% 29.81 in 10.0 mi South 9.2 mph - N/A Thunderstorm Overcast
8:35 PM 71.1 °F 66.6 °F 86% 29.82 in 10.0 mi South 8.1 mph - N/A   Mostly Cloudy
8:55 PM 71.2 °F 66.7 °F 86% 29.83 in 10.0 mi SSW 8.1 mph - N/A Thunderstorm Overcast
9:15 PM 71.8 °F 67.1 °F 85% 29.84 in 10.0 mi West 5.8 mph - N/A Thunderstorm Overcast
9:35 PM 66.2 °F 62.1 °F 86% 29.85 in 10.0 mi WNW 11.5 mph - 0.05 in Thunderstorm Thunderstorm
9:55 PM 63.7 °F 61.7 °F 93% 29.84 in 7.0 mi South 12.7 mph 17.3 mph 0.31 in Rain , Thunderstorm Light Thunderstorms and Rain
10:15 PM 63.9 °F 62.1 °F 94% 29.85 in 5.0 mi WSW 15.0 mph 21.9 mph 0.09 in Rain , Thunderstorm Heavy Thunderstorms and Rain
10:35 PM 63.3 °F 61.2 °F 93% 29.85 in 5.0 mi SW 8.1 mph - 0.32 in Rain , Thunderstorm Thunderstorms and Rain
10:55 PM 62.8 °F 61.7 °F 96% 29.85 in 5.0 mi SW 5.8 mph - 0.40 in Rain , Thunderstorm Rain
11:15 PM 62.6 °F 61.7 °F 97% 29.84 in 7.0 mi South 4.6 mph - 0.02 in Rain , Thunderstorm Light Thunderstorms and Rain
11:35 PM 62.6 °F 61.7 °F 97% 29.85 in 7.0 mi SSW 5.8 mph - 0.05 in Rain , Thunderstorm Light Thunderstorms and Rain
11:55 PM 62.6 °F 61.9 °F 97% 29.85 in 4.0 mi Calm Calm - 0.12 in Rain , Thunderstorm Thunderstorms and Rain